Location: Tamazert
(32.6352°N, 5.2072°W)
Time: 03:31:21
(UTC+00:00)

Vanguard 2 - Pass Details

Date: 09 October 2022
Orbit: 553 x 2933 km, 32.9° (Epoch: 04 December)

Event Time Altitude Azimuth Distance (km) Brightness Sun altitude
Rises 10:17:23 0° 229° (SW) 3,367 10.9 43.0°
Reaches altitude 10° 10:19:32 10° 223° (SW) 2,639 10.5 43.3°
Maximum altitude 10:25:41 49° 150° (SSE) 1,602 12.0 44.0°
Drops below altitude 10° 10:35:53 10° 80° (E) 4,302 11.7 45.3°
Sets 10:40:21 0° 76° (ENE) 5,694 12.1 45.8°
